Regional Weather Roundup
Issued by NWS

Home | Current Version | Previous Version | Graphics & Text | Print | Product List | Glossary On
Versions: 1 2 3 4 5 6 7 8 9 10 11 12 13 14 15 16 17 18 19 20 21 22 23 24 25 26 27 28 29 30 31 32 33 34 35 36 37 38 39 40 41 42 43 44 45 46 47 48 49 50
000
ASUS43 KLMK 040010
RWRKY
KENTUCKY REGIONAL WEATHER ROUNDUP
NATIONAL WEATHER SERVICE LOUISVILLE KY
700 PM EST TUE MAR 03 2015

NOTE "FAIR" INDICATES FEW OR NO CLOUDS BELOW 12,000 FEET
WITH NO SIGNIFICANT WEATHER AND/OR OBSTRUCTIONS TO VISIBILITY.

KYZ001>023-026-027-061>063-070>075-040100-
WESTERN AND SOUTH CENTRAL KENTUCKY

CITY           SKY/WX    TMP DP  RH WIND       PRES   REMARKS
PADUCAH        CLOUDY    53  51  93 W9        29.86R
HENDERSON      CLOUDY    48  46  93 W8        29.86R
OWENSBORO      LGT RAIN  56  55  96 W9        29.86R
HOPKINSVILLE   CLOUDY    60  59  94 SW10      29.88R
BOWLING GREEN  LGT RAIN  61  58  90 S12       29.88S
GLASGOW        RAIN      62  56  83 SW14      29.89R
$$

KYZ024-025-028>034-038-045-046-053-040100-
NORTH CENTRAL KENTUCKY

CITY           SKY/WX    TMP DP  RH WIND       PRES   REMARKS
LOUISVILLE/SDF RAIN      60  58  92 W10       29.81R FOG
LOUISVILLE/LOU RAIN      59  57  93 W9        29.81R FOG
FORT KNOX      CLOUDY    62  56  83 SW16G22   29.80R
$$

KYZ035>037-039>044-047>052-055>060-089>105-040100-
NORTHEAST KENTUCKY

CITY           SKY/WX    TMP DP  RH WIND       PRES   REMARKS
LEXINGTON      CLOUDY    60  56  86 SW17      29.83R
COVINGTON      LGT RAIN  50  48  93 W15G24    29.79R FOG
FRANKFORT      CLOUDY    61  55  81 SW20G26   29.80R
$$

KYZ054-064>069-076>088-106>120-040100-
SOUTHEAST KENTUCKY

CITY           SKY/WX    TMP DP  RH WIND       PRES   REMARKS
JACKSON        CLOUDY    59  54  83 S9        29.87F
LONDON         CLOUDY    60  52  74 S14G22    29.92F
SOMERSET       RAIN      55  54  94 S6        29.92F
MIDDLESBORO    DRIZZLE   43  43 100 CALM      29.99F
MONTICELLO     MOCLDY    63  58  83 SW14      29.95S
$$




USA.gov is the U.S. government's official web portal to all federal, state and local government web resources and services.